Probability
0 1 2 2 1 0 0 1 2 2 1 0 0 0 0 0 0 0 0 0 0 0 0 0 0 0 0 0 0 0 0 0 0 0 0 0 0 0 0 0 0 0 0
0 0 1 1 0 0 1 1 2 2 1 0 0 0 0 0 0 0 0 0 0 0 0 0 0 0 0 0 0 0 0 0 0 0 0 0 0 0 0 0 0 0 0
1 1 0 0 1 2 2 1 1 1 0 0 0 0 0 0 0 0 0 0 0 0 0 0 0 0 0 0 0 0 0 0 0 0 0 0 0 0 0 0 0 0 0
2 2 1 1 2 3 3 2 1 0 0 0 0 0 0 0 0 0 0 0 0 0 0 0 0 0 0 0 0 0 0 0 0 0 0 0 0 0 0 0 0 0 0
1 2 2 2 3 4 4 3 1 0 0 0 0 0 0 0 0 0 0 0 0 0 0 0 0 0 0 0 0 0 0 0 0 0 0 0 0 0 0 0 0 0 0
0 1 3 3 4 4 4 3 2 1 0 0 0 0 0 0 0 0 0 0 0 0 0 0 0 0 0 0 0 0 0 0 0 0 0 0 0 0 0 0 0 0 0
0 1 2 3 4 5 4 3 2 1 0 0 0 0 0 0 0 0 0 0 0 0 0 0 0 0 0 0 0 0 0 0 0 0 0 0 0 0 0 0 0 0 0
0 0 1 1 3 4 3 2 3 2 1 0 0 0 0 0 0 0 0 0 0 0 0 0 0 0 0 0 0 0 0 0 0 0 0 0 0 0 0 0 0 0 0
0 0 0 0 1 2 2 2 3 3 1 0 0 0 0 0 0 0 0 0 0 0 0 0 0 0 0 0 0 0 0 0 0 0 0 0 0 0 0 0 0 0 0
0 0 0 0 1 1 1 2 3 3 1 0 0 0 0 0 0 0 0 0 0 0 0 0 0 0 0 0 0 0 0 0 0 0 0 0 0 0 0 0 0 0 0
0 0 0 1 1 1 1 2 3 3 2 0 0 0 0 0 0 0 0 0 0 0 0 0 0 0 0 0 0 0 0 0 0 0 0 0 0 0 0 0 0 0 0
0 0 0 1 2 2 1 2 4 4 2 0 0 0 0 0 0 0 0 0 0 0 0 0 0 0 0 0 0 0 0 0 0 0 0 0 0 0 0 0 0 0 0
0 0 0 0 1 1 1 2 4 4 1 0 0 0 0 0 0 0 0 0 0 0 0 0 0 0 0 0 0 0 0 0 0 0 0 0 0 0 0 0 0 0 0
0 0 0 0 0 0 0 1 2 2 1 0 0 0 0 0 0 0 0 0 0 0 0 0 0 0 0 0 0 0 0 0 0 0 0 0 0 0 0 0 0 0 0
0 0 0 0 0 0 0 0 1 1 1 1 1 0 0 0 0 0 0 0 0 0 0 0 0 0 0 0 0 0 0 0 0 0 0 0 0 0 0 0 0 0 0
0 0 0 0 0 0 0 0 0 0 0 0 1 1 1 0 0 0 0 0 0 0 0 0 0 0 0 0 0 0 0 0 0 0 0 0 0 0 0 0 0 0 0
0 0 0 0 0 0 0 0 0 0 0 0 0 1 1 1 0 0 0 0 0 0 0 0 0 0 0 0 0 0 0 0 0 0 0 0 0 0 0 0 0 0 0
0 0 0 0 0 0 0 0 0 0 0 0 0 1 1 1 0 0 0 0 0 0 0 0 0 0 0 0 0 0 0 0 0 0 0 0 0 0 0 0 0 0 0
0 0 0 0 0 0 0 0 0 0 0 0 0 0 0 0 0 0 0 0 0 0 0 0 0 0 0 0 0 0 0 0 0 0 0 0 0 0 0 0 0 0 0
0 0 0 0 0 0 0 0 0 0 0 0 0 0 0 0 0 0 0 0 0 0 0 0 0 0 0 0 0 0 0 0 0 0 0 0 0 0 0 0 0 0 0
0 0 0 0 0 0 0 0 0 1 1 1 0 0 0 0 0 0 0 0 0 0 0 0 0 0 0 0 0 0 0 0 0 0 0 0 0 0 0 0 0 0 0
0 0 0 0 0 0 0 0 1 1 2 1 0 0 0 0 0 0 0 0 0 0 0 0 0 0 0 0 0 0 0 0 0 0 0 0 0 0 0 0 0 0 0
0 0 0 0 0 0 0 0 0 1 1 1 0 0 0 0 0 0 0 0 0 0 0 0 0 0 0 0 0 0 0 0 0 0 0 0 0 0 0 0 0 0 0
0 0 0 0 0 0 0 0 0 0 0 0 0 0 0 0 0 0 0 0 0 0 0 0 0 0 0 0 0 0 0 0 0 0 0 0 0 0 0 0 0 0 0
0 0 0 0 0 0 0 0 0 0 0 0 0 0 0 0 0 0 0 0 0 0 0 0 0 0 0 0 0 0 0 0 0 0 0 0 0 0 0 0 0 0 0
0 0 0 0 0 0 0 0 0 0 0 0 0 0 0 0 0 0 0 0 0 0 0 0 0 0 0 0 0 0 0 0 0 0 0 0 0 0 0 0 0 0 0
Wind_Speed
4 4 3 3 4 3 3 3 3 4 4 3 4 4 4 4 4 3 2 6 6 7 7 7 7 6 7 7 7 7 8 8 8 8 8 8 9 9 8 8 8 7 7
4 4 4 4 4 4 3 3 4 4 3 3 4 4 5 4 4 4 3 4 6 6 7 7 7 7 7 8 8 8 7 7 8 8 8 8 8 8 8 7 6 6 6
4 4 4 4 4 4 4 3 3 3 3 3 3 4 4 4 4 5 4 3 3 5 6 7 7 8 8 8 9 8 8 7 8 8 8 8 8 8 7 6 6 5 5
4 4 4 4 4 3 3 3 3 3 3 2 2 2 2 3 4 5 4 4 3 3 4 6 7 8 8 9 9 9 8 8 8 8 8 8 8 7 7 6 5 4 4
4 3 4 3 3 3 3 4 3 3 3 3 2 2 2 2 3 4 5 5 4 3 3 4 6 7 7 8 9 9 8 8 8 8 8 8 7 7 6 5 5 4 3
4 3 3 4 3 3 4 4 3 3 2 2 2 1 0 1 1 2 4 4 3 4 4 3 3 4 6 7 7 8 8 8 8 7 7 7 7 7 6 5 4 4 3
4 3 3 3 4 4 5 5 4 4 3 2 2 1 1 1 1 1 2 2 4 4 4 4 3 3 3 5 6 7 8 9 9 8 8 7 7 7 6 5 5 4 3
4 3 3 3 4 4 5 5 4 3 3 4 4 3 1 1 1 1 1 3 3 3 4 5 4 4 3 3 4 6 6 7 9 8 8 7 7 7 6 6 5 4 3
4 4 4 3 3 4 4 6 6 6 4 3 3 4 4 4 1 0 1 2 3 3 3 3 5 5 5 3 3 5 6 6 8 8 8 8 7 7 6 5 5 4 3
4 4 4 4 3 3 4 5 6 5 5 4 3 2 2 3 3 2 0 1 2 3 3 4 5 5 5 4 4 6 7 7 7 8 8 8 7 7 7 6 5 4 3
4 3 3 3 3 3 4 4 4 5 5 5 4 3 2 1 2 3 2 1 1 1 2 3 3 4 5 4 4 6 8 8 7 8 8 8 7 7 7 6 6 5 4
3 3 3 3 3 3 4 4 4 5 5 6 5 4 4 4 4 3 3 2 2 1 1 2 3 3 4 4 5 7 8 8 8 7 7 6 7 6 6 6 6 5 4
3 4 3 3 3 3 4 4 4 5 6 6 6 5 4 4 3 4 4 3 2 1 1 1 2 2 3 3 4 7 7 8 8 7 7 6 5 5 5 5 5 5 4
4 4 4 3 3 3 3 3 3 4 4 5 6 5 4 4 3 4 4 4 3 1 1 2 1 2 2 3 4 7 4 7 8 8 7 6 5 5 4 4 4 4 4
4 5 4 4 3 2 2 2 2 3 4 5 5 6 5 4 4 4 3 4 5 4 3 2 2 1 2 2 3 4 3 6 7 7 7 6 6 5 5 4 3 3 3
5 5 5 4 3 2 1 1 1 2 3 3 3 4 4 3 4 4 4 4 4 4 3 3 2 1 2 2 4 3 3 6 7 7 7 7 7 6 5 5 5 4 3
5 5 5 4 3 2 1 0 1 2 3 3 3 4 4 4 4 3 4 4 4 4 4 2 1 2 2 3 3 3 3 3 4 7 8 8 7 7 5 5 5 4 4
5 5 4 4 4 3 2 1 0 1 2 2 3 4 4 4 4 4 4 4 4 4 4 4 3 2 3 4 4 4 3 3 3 6 8 8 8 8 7 7 6 6 5
6 6 5 5 4 4 3 2 1 1 1 1 2 3 4 5 4 3 4 4 4 4 3 4 4 2 2 3 4 4 5 4 4 6 8 8 8 9 9 8 7 7 6
6 6 6 5 5 4 3 2 1 1 1 1 1 2 3 4 5 5 4 4 4 4 4 5 4 3 3 3 4 5 4 4 4 5 6 7 9 9 9 9 8 7 7
7 6 6 6 5 4 3 3 2 2 2 2 2 1 2 3 5 4 4 4 5 5 5 4 4 3 4 4 5 4 5 5 4 3 5 5 5 5 5 7 8 8 8
7 7 7 7 6 5 7 7 4 3 3 3 2 2 1 2 4 5 5 6 6 7 6 5 4 5 5 4 4 5 6 5 3 2 4 4 4 5 4 4 6 8 8
7 7 7 7 7 7 9 9 8 4 3 3 2 2 2 2 3 3 5 5 4 6 6 5 6 5 5 6 7 7 5 4 4 4 4 4 3 4 4 5 9 9 8
5 6 7 7 7 8 11 10 8 5 4 4 3 3 3 2 2 4 5 5 4 4 3 3 4 4 4 5 6 6 7 7 6 3 3 4 2 3 3 4 8 10 9
5 5 5 7 7 8 11 10 8 4 4 5 4 4 3 2 5 8 7 7 6 5 5 7 7 6 8 9 9 8 7 8 5 2 2 3 3 2 2 3 5 9 8
4 4 5 6 6 7 11 11 9 3 4 4 4 4 5 4 5 7 6 6 6 4 5 6 7 8 7 8 8 6 7 7 5 3 2 3 3 3 3 1 2 3 4
Wind_Direction
248 240 231 222 217 214 216 214 206 208 214 214 218 222 226 228 226 221 236 245 238 223 211 196 187 179 168 161 157 152 147 145 142 136 134 136 134 130 129 128 126 128 125
243 241 238 229 222 215 212 209 207 205 210 208 222 222 223 220 222 218 217 237 234 220 214 204 193 186 177 169 164 158 155 152 150 146 141 139 138 137 136 134 133 131 128
246 239 234 230 224 213 209 206 205 194 204 209 224 229 224 218 216 212 208 207 215 215 212 208 200 191 184 178 172 165 161 159 158 154 150 148 145 143 141 140 137 135 132
251 240 235 233 218 204 198 198 187 190 203 197 209 228 227 217 216 207 198 195 188 193 210 211 202 195 191 186 178 172 169 167 162 160 158 156 155 155 153 153 149 147 146
262 240 236 235 218 207 202 205 188 186 192 196 204 213 221 220 210 201 194 191 184 178 183 210 206 199 194 191 184 179 176 174 171 169 168 165 167 167 163 162 160 164 168
270 251 240 232 216 209 208 205 191 178 179 180 199 195 255 251 200 197 198 186 181 182 181 188 193 203 199 195 192 188 184 182 181 180 176 174 172 171 170 173 178 178 181
276 258 251 234 218 215 211 203 192 182 184 155 129 89 8 357 203 202 189 181 187 184 176 184 184 178 192 199 195 195 194 190 189 189 185 181 177 178 180 181 183 182 181
280 269 250 238 225 219 215 205 191 177 184 170 151 133 171 312 290 214 183 193 194 176 185 190 182 182 178 172 192 198 200 199 197 195 193 189 185 184 187 190 192 192 188
276 265 252 240 229 219 217 210 197 188 185 183 172 156 165 199 208 260 212 196 181 182 190 180 185 184 181 177 183 204 203 203 205 202 199 197 191 188 190 191 193 196 195
284 270 255 242 232 225 222 216 202 193 179 180 186 187 161 155 157 172 267 209 192 193 193 190 188 185 182 180 189 195 200 203 209 210 207 200 194 194 194 194 193 195 199
298 287 266 250 241 228 221 215 204 198 190 185 178 170 154 135 144 151 176 186 196 212 195 191 184 184 184 183 186 197 198 199 203 210 211 205 200 198 198 198 198 197 196
308 306 290 261 248 236 222 214 212 206 199 194 188 178 167 165 173 161 159 164 182 212 194 185 189 191 188 185 195 196 198 199 200 203 204 200 196 195 199 200 198 198 201
319 319 314 285 259 238 227 214 211 211 201 198 197 195 188 186 162 155 147 145 146 165 178 194 201 192 193 182 194 191 196 196 195 192 191 190 186 186 192 195 195 200 203
310 315 313 296 282 255 230 214 212 211 202 201 203 197 195 196 178 169 158 146 142 164 196 209 186 190 184 177 189 185 189 187 184 184 179 172 167 164 167 173 185 195 201
324 332 329 321 309 288 246 212 208 209 202 205 204 200 200 195 188 186 170 163 158 171 200 199 190 179 166 158 167 171 173 180 175 169 161 155 152 156 163 159 149 137 127
336 336 338 332 322 316 285 218 202 202 195 200 197 194 196 191 186 182 178 179 170 161 178 183 183 159 153 143 145 149 160 163 167 163 157 150 148 147 148 141 131 122 116
341 344 340 337 336 339 332 260 186 176 188 194 191 188 193 181 175 179 172 173 172 157 160 160 142 140 144 141 130 126 130 137 145 153 154 152 148 144 143 140 136 123 111
348 347 344 349 352 352 350 13 181 173 175 187 188 180 183 173 172 174 175 177 174 164 154 156 155 150 149 152 138 132 123 124 121 132 136 140 137 133 128 125 122 119 115
356 356 357 1 357 353 356 9 19 131 147 176 183 180 177 166 168 167 167 169 170 167 149 145 150 140 126 138 131 121 115 105 110 116 119 124 125 124 121 119 117 115 111
359 358 358 358 356 355 8 16 45 89 106 96 140 157 159 166 170 167 168 171 162 152 146 144 145 143 138 141 142 138 126 108 102 101 95 99 105 105 110 113 114 115 113
3 359 6 6 2 3 16 26 47 69 86 80 75 93 138 166 171 170 168 168 160 154 151 151 149 147 152 155 155 142 132 118 90 94 99 87 88 86 89 98 104 109 108
4 9 13 10 11 14 21 30 48 61 73 82 73 65 98 138 153 157 161 160 160 161 161 159 160 160 161 152 143 140 138 135 121 109 101 83 78 81 69 76 94 102 103
8 11 10 10 12 12 25 36 41 55 61 66 72 71 78 88 107 115 111 116 128 143 155 158 159 164 160 160 151 148 143 125 119 133 110 88 71 78 61 68 85 92 99
7 8 8 8 14 19 25 32 40 49 53 48 49 60 73 75 107 120 112 99 87 90 120 133 148 155 155 153 152 143 132 110 98 94 98 106 93 80 65 54 71 81 85
9 9 9 13 17 11 18 31 41 42 48 40 34 39 57 83 110 116 113 108 97 80 79 97 106 114 128 137 138 130 132 133 126 111 82 110 123 102 73 49 50 64 73
4 5 15 15 15 12 20 31 37 46 48 39 30 29 45 75 104 114 116 119 114 104 100 92 85 88 101 119 127 141 147 144 133 134 143 117 133 132 116 71 43 40 53